Theta_e
320 320 319 319 319 318 318 318 319 316 316 311 306 309 300 298 294 301 303 307 306 299 292 294 292 291 291 290 290 286 286 285 285 288 287 287 287 286 287 288 286 285 285 283 284 286 284 283 284 281 282 287 289 285 290 288 289 290 285 285 284 291 281 278 283 281 277 280 278 278 278 282 282 281 278 280 280 282 282 282 276 272 270 273 271 272 280
316 318 319 319 319 319 318 318 318 316 314 312 309 304 299 299 298 297 304 307 306 296 287 287 289 292 293 290 289 288 287 285 285 286 288 289 285 287 287 286 288 285 286 285 284 285 282 284 284 284 285 283 285 287 288 290 289 290 286 288 289 282 283 282 278 275 276 275 278 279 279 278 278 280 280 281 283 281 278 274 274 274 277 273 275 272 279
314 314 315 318 318 319 318 317 317 316 316 314 310 301 302 300 301 299 300 303 302 292 292 289 289 291 291 290 289 289 288 288 290 289 287 289 285 287 285 287 285 287 286 286 286 285 288 283 284 288 285 286 284 284 288 291 290 290 289 294 293 286 282 282 276 275 273 273 271 271 274 279 278 276 277 281 281 281 276 277 275 275 278 277 278 278 285
313 314 313 314 317 317 317 316 316 315 315 314 310 304 300 295 289 296 294 298 297 296 297 291 288 288 289 288 289 290 287 289 286 290 289 289 286 287 286 285 287 286 286 284 285 285 286 286 283 282 282 283 285 283 285 288 290 291 293 291 291 281 281 285 285 282 279 281 282 279 280 277 277 278 280 281 281 282 282 281 273 275 279 277 281 282 283
312 312 312 313 313 315 317 316 315 315 314 313 310 305 301 298 292 291 286 295 294 293 296 292 292 285 289 285 289 287 288 289 287 290 286 289 290 288 289 287 285 283 285 285 285 287 287 287 286 285 281 281 284 282 281 285 287 291 291 291 286 277 281 284 284 285 285 286 286 282 283 280 280 281 280 281 281 280 279 278 277 283 276 275 282 283 282
311 311 311 311 312 312 313 315 316 315 314 313 311 299 300 291 295 298 297 291 286 288 289 294 291 291 290 288 291 287 287 287 286 287 288 287 290 288 286 289 290 289 288 287 284 285 286 287 285 288 284 284 284 286 284 284 288 288 285 287 288 285 284 287 285 283 286 287 287 282 281 283 284 281 282 281 280 279 277 278 282 283 279 278 283 284 282
310 310 311 310 311 311 312 312 314 315 314 313 309 299 301 299 295 297 301 293 293 292 293 294 292 291 291 289 290 287 287 286 289 286 286 289 287 290 284 286 288 289 290 288 285 286 282 283 287 285 287 287 286 284 286 285 283 286 284 285 281 281 284 287 286 285 285 285 285 283 281 281 282 282 282 282 280 279 280 281 282 282 281 283 284 284 284
309 309 309 310 310 310 310 311 311 314 314 313 306 304 299 295 294 292 298 297 295 294 294 293 292 289 292 287 288 289 287 286 287 286 288 285 286 290 287 288 288 289 289 289 286 288 288 287 284 287 288 287 287 286 288 283 280 283 284 283 281 285 284 290 286 284 284 285 285 283 282 282 282 283 284 284 280 281 282 282 282 282 281 283 283 282 283
307 307 308 308 309 310 310 310 310 309 313 307 305 303 306 303 303 300 294 291 293 294 293 292 291 289 290 288 289 290 289 288 290 288 292 289 287 288 287 289 289 289 289 289 289 291 291 290 289 289 289 286 290 288 286 291 280 280 281 281 279 285 281 280 278 281 281 285 284 281 282 281 281 282 284 284 283 281 282 281 283 281 280 282 281 279 281
305 306 306 307 307 308 308 309 309 309 310 308 306 302 308 307 301 303 298 290 294 292 292 292 291 286 290 291 290 290 289 291 291 287 292 292 292 291 291 291 289 287 287 288 290 293 293 292 293 293 291 293 291 292 289 290 287 281 282 281 278 283 281 282 279 279 279 283 278 278 279 278 279 281 284 285 285 286 286 286 286 285 285 281 280 281 287
304 304 305 305 306 306 307 307 308 308 307 303 305 304 306 303 301 299 299 291 292 293 292 290 290 290 293 293 291 293 292 292 292 286 287 292 291 294 292 291 288 287 287 291 294 294 294 294 293 293 293 292 291 291 291 289 289 285 282 279 278 280 282 283 285 279 281 278 276 278 278 274 277 287 287 288 285 285 283 284 285 287 287 285 287 288 290
301 303 304 304 305 305 306 306 306 306 306 305 304 300 304 307 305 301 296 290 289 294 291 289 290 291 292 292 293 291 291 291 291 293 289 291 291 293 292 291 291 285 293 294 292 292 292 291 290 291 290 289 290 290 289 289 289 289 286 284 280 282 283 282 284 280 280 277 278 275 272 275 286 287 286 285 287 287 285 286 287 287 288 288 287 288 289
299 300 302 302 303 304 305 305 305 305 305 304 303 299 304 306 301 300 298 294 288 292 290 291 294 293 294 293 292 292 293 293 294 294 293 292 291 289 291 291 289 292 294 293 294 293 289 287 288 288 288 289 288 287 287 287 288 287 285 288 286 281 282 281 281 281 275 275 277 273 274 285 286 288 288 285 284 283 283 283 286 287 288 288 286 288 290
299 298 300 301 301 302 303 304 304 304 304 304 301 300 302 303 298 297 298 294 291 294 294 293 293 292 293 293 293 293 293 292 293 294 291 294 292 292 292 293 294 294 293 295 291 291 286 286 284 285 284 286 285 285 287 289 289 287 285 285 287 286 284 283 280 285 277 278 278 277 284 283 285 286 287 286 283 279 282 281 284 289 289 288 287 288 289
298 299 298 299 299 300 301 301 302 302 303 303 302 301 301 301 300 297 297 295 287 291 294 286 290 292 293 293 293 291 292 292 291 290 293 295 293 295 295 296 291 293 295 293 287 288 287 285 282 281 281 281 277 280 286 284 288 289 288 287 287 287 284 284 282 280 285 279 277 278 277 275 280 287 290 286 287 287 286 284 283 290 291 290 288 288 289
297 297 298 299 298 298 299 300 300 300 301 302 301 299 300 302 302 300 296 292 289 283 288 294 295 294 292 292 294 292 290 290 291 291 290 290 291 294 292 288 290 294 292 292 288 287 285 283 280 281 278 280 284 281 278 282 278 280 282 285 286 286 287 286 284 281 282 280 277 276 275 278 286 287 286 282 284 286 284 281 280 288 289 288 290 289 289
298 298 297 297 298 298 298 298 298 298 299 299 297 298 296 301 299 296 292 291 290 285 294 295 296 296 293 291 293 292 293 290 291 288 287 288 290 291 290 286 288 291 292 290 286 286 283 283 284 282 283 285 281 281 282 278 277 277 281 281 282 281 281 281 279 280 281 280 278 276 281 280 285 287 280 281 284 286 284 274 278 289 289 290 290 289 289
298 298 298 297 297 297 297 298 298 299 298 299 296 295 294 299 299 298 293 290 286 285 292 293 291 289 290 292 291 293 294 291 291 291 290 290 289 287 289 287 286 288 292 288 286 285 283 283 280 280 280 286 285 285 279 283 279 277 278 277 277 278 279 280 277 279 280 281 279 281 282 288 290 287 280 283 285 285 277 275 284 287 285 288 289 288 289
297 297 297 298 297 297 297 297 297 297 298 298 296 295 294 298 300 300 293 288 286 282 292 294 294 291 294 298 296 295 294 294 294 289 287 288 289 290 287 286 290 286 289 286 287 284 283 282 286 284 282 283 286 279 285 283 281 282 279 278 277 278 279 279 281 278 278 279 278 279 283 288 291 284 285 284 284 277 278 288 289 289 290 285 288 287 288
296 297 297 297 297 297 297 297 297 297 297 297 295 291 292 296 296 296 291 285 287 285 288 289 290 288 293 292 290 292 292 294 294 292 287 287 289 289 287 285 288 287 286 288 283 286 284 281 284 286 283 283 285 287 284 285 288 281 281 285 282 279 279 274 278 280 280 280 277 277 274 285 293 284 283 283 283 285 292 292 286 288 287 285 284 286 286
297 296 296 296 297 297 297 297 297 297 297 297 296 290 288 292 295 297 297 292 286 282 283 293 293 292 293 292 293 293 290 288 292 291 293 293 291 290 284 283 287 288 283 287 281 284 286 283 285 285 286 287 285 288 282 284 285 288 287 285 285 287 281 278 281 284 277 277 275 276 283 289 287 287 284 284 288 293 294 291 291 292 287 286 286 284 285
297 297 296 296 296 296 296 296 297 297 297 297 296 291 286 289 291 293 295 294 287 283 284 290 292 290 292 293 293 293 292 292 293 294 289 287 291 293 292 291 288 289 287 289 284 285 287 286 287 285 282 286 287 285 286 284 280 286 288 288 281 288 287 287 283 286 284 281 284 288 291 288 287 291 292 292 291 293 293 291 290 290 287 286 287 288 285
296 296 296 296 297 296 296 296 296 296 296 297 295 289 287 288 287 291 290 286 288 289 289 288 289 289 291 291 293 294 295 296 296 295 295 289 285 290 291 291 290 292 289 293 289 289 289 289 285 288 286 287 286 285 286 286 284 287 283 288 289 291 293 292 289 286 291 291 291 291 286 283 286 290 293 293 293 291 290 289 289 289 289 286 287 288 286
295 296 296 296 296 295 295 296 296 297 297 297 296 290 288 289 290 290 288 287 282 279 282 284 282 279 282 284 290 294 295 295 296 296 298 296 286 286 291 293 294 293 288 291 296 291 289 290 288 290 286 287 290 285 282 282 285 288 287 285 288 290 291 289 286 288 287 282 291 290 290 288 286 288 290 292 291 289 288 289 289 290 290 287 286 286 285
296 296 295 295 296 296 296 296 296 295 296 296 295 294 292 289 290 289 283 279 279 278 274 278 282 284 289 290 292 292 295 297 298 297 297 297 294 288 286 292 298 294 292 295 291 291 288 287 287 287 284 289 292 285 289 287 284 291 285 286 287 285 292 287 287 287 286 286 291 292 292 293 291 288 288 288 289 289 286 287 289 289 289 287 285 285 284
295 295 295 296 296 295 295 295 295 296 296 295 294 290 288 287 287 287 287 285 282 279 274 272 276 284 285 285 285 287 291 293 294 296 297 298 298 297 295 295 294 296 295 294 292 289 288 287 287 287 286 286 296 288 287 290 289 292 289 287 293 290 291 285 287 287 288 291 291 292 291 286 288 291 291 291 292 291 289 288 287 285 284 284 283 285 285
296 295 295 296 296 295 295 295 295 295 296 295 293 290 289 288 290 288 284 283 279 273 276 273 278 281 281 282 287 289 287 287 287 287 288 290 290 292 294 294 293 294 293 291 292 291 289 287 286 285 287 286 291 290 290 288 289 287 287 290 289 286 286 290 288 284 285 286 288 291 286 286 290 291 292 292 292 291 289 289 287 286 285 285 284 283 283
296 295 295 295 295 295 295 295 295 295 295 294 293 291 290 288 288 290 290 287 280 273 274 274 274 277 284 281 284 285 286 286 286 286 286 287 288 289 289 289 290 290 290 289 286 287 286 284 284 288 289 286 288 286 291 291 290 288 288 289 291 289 289 289 286 285 285 290 293 293 293 292 294 295 295 294 292 291 289 289 289 288 287 286 285 283 281
296 296 295 295 295 295 295 295 295 295 295 294 288 287 286 287 287 290 290 291 287 280 278 279 281 279 272 276 285 282 284 285 285 285 286 286 287 287 287 288 288 289 290 290 289 289 287 287 290 287 286 289 289 285 288 285 283 284 287 292 292 294 296 293 292 292 293 294 294 294 293 291 293 295 295 294 292 292 291 291 290 290 288 286 285 285 284
295 295 295 294 295 295 295 296 295 295 295 288 282 283 279 282 287 286 290 290 288 285 278 275 272 274 283 278 277 280 282 284 284 284 284 285 286 286 286 285 285 287 287 287 287 284 287 289 289 290 290 295 288 286 286 285 285 286 292 293 294 294 295 296 296 293 292 296 296 295 294 294 295 295 295 295 291 290 290 289 290 289 289 288 286 285 286
294 294 295 295 295 295 294 295 295 296 294 282 282 276 276 274 281 289 291 290 289 285 278 279 274 279 278 277 282 280 280 281 280 280 281 282 283 284 286 287 286 287 283 285 286 286 288 285 286 287 290 293 290 286 285 285 283 285 290 292 293 294 293 294 296 296 296 296 296 296 294 294 294 293 291 291 290 289 289 289 289 289 289 288 286 286 286
294 294 294 294 295 295 295 295 295 294 290 283 281 278 278 279 283 290 293 291 288 282 275 273 273 271 268 274 275 278 281 281 281 281 282 282 281 284 285 286 284 287 287 284 286 285 283 286 286 287 287 290 291 285 286 285 283 285 291 292 293 294 294 294 294 296 296 297 295 292 292 292 291 291 292 294 291 288 289 290 290 289 288 288 287 286 286
294 294 294 294 294 294 296 295 295 294 287 288 292 294 294 294 293 293 293 286 282 276 276 272 269 274 271 263 275 276 280 279 279 280 279 286 283 285 284 286 286 286 290 286 282 282 286 286 286 284 287 292 287 285 285 283 285 289 291 292 293 293 294 294 295 296 296 296 296 292 291 293 294 294 293 293 288 287 288 288 289 287 285 285 284 283 282
294 294 294 294 294 294 295 294 294 292 292 286 281 283 287 293 293 293 291 286 279 280 277 271 270 270 268 272 273 275 280 272 274 277 273 280 283 283 282 284 285 283 285 284 284 286 286 287 283 285 288 286 288 286 280 284 289 290 291 292 292 293 294 294 294 294 294 295 296 295 295 296 296 293 286 289 288 286 286 286 285 284 283 284 283 283 283
293 293 294 294 293 294 293 293 289 287 283 283 282 284 286 292 293 293 291 283 276 275 276 273 273 267 266 265 268 272 277 272 272 275 273 276 283 280 283 281 283 280 281 291 284 283 282 283 287 283 280 286 285 279 281 286 288 289 290 290 291 292 291 291 291 293 294 294 294 294 294 293 292 291 290 287 286 284 283 283 284 284 282 282 283 282 280
293 293 293 293 294 294 287 287 286 283 281 281 281 289 291 292 292 288 287 286 281 273 274 270 272 268 267 266 266 268 278 272 275 274 272 273 274 277 280 278 275 279 283 282 279 283 282 284 284 278 284 281 279 282 286 287 287 288 289 289 290 291 290 291 292 293 293 293 292 292 292 291 290 291 291 291 286 282 282 282 281 282 283 283 282 281 280
293 293 294 291 285 283 281 280 284 283 280 284 287 291 291 290 285 285 282 281 281 283 273 268 270 269 271 270 269 267 276 269 275 272 272 274 273 278 278 275 273 278 279 277 278 278 281 288 283 278 280 278 279 285 286 287 288 287 288 290 290 291 291 292 292 292 291 290 290 290 290 290 289 290 289 289 286 281 280 280 281 281 281 282 282 280 279
293 293 287 282 279 276 274 273 275 280 290 289 290 282 275 278 270 277 279 278 280 282 275 277 271 273 275 272 268 277 275 271 276 270 270 274 274 272 276 276 276 280 273 276 278 283 281 280 279 277 279 285 286 287 287 288 288 289 289 289 290 291 291 292 291 290 288 288 288 289 288 288 288 289 289 288 288 283 282 284 284 284 285 284 283 281 279
291 283 278 279 277 274 273 271 283 291 288 286 280 271 270 275 274 273 273 276 275 272 277 276 273 276 274 271 273 280 276 272 270 269 268 275 272 268 274 270 274 278 272 273 275 285 276 277 278 278 276 281 283 285 288 289 289 290 290 290 291 291 291 291 291 290 289 289 290 291 290 289 288 288 289 289 289 288 286 285 285 284 283 283 282 279 278
279 276 277 277 276 278 284 284 291 286 282 272 269 270 267 272 271 266 276 269 268 271 276 271 276 275 276 273 272 271 280 273 269 269 271 271 276 269 271 272 273 274 268 269 272 282 276 272 276 276 275 281 283 286 286 286 286 288 289 290 290 290 291 291 291 292 292 292 292 292 292 292 291 290 289 289 288 288 286 284 284 283 282 282 280 279 277
278 275 276 276 277 279 281 282 280 277 276 274 273 271 268 264 266 266 269 263 264 263 270 271 270 270 275 276 275 271 278 277 273 276 271 269 274 275 270 269 274 269 267 268 273 276 271 269 271 272 274 280 282 284 285 285 286 288 289 289 289 289 290 290 291 292 291 291 291 291 291 291 290 289 290 290 289 288 287 285 282 281 281 280 278 278 278
281 281 279 280 280 280 279 276 272 274 276 277 271 267 269 267 269 264 265 263 263 262 263 270 265 270 269 274 274 277 276 278 274 276 273 270 278 273 270 270 272 269 266 272 272 266 267 268 269 271 275 278 281 283 283 284 285 286 287 288 289 289 289 289 289 290 289 289 290 290 290 290 290 290 289 289 288 287 286 284 282 281 281 280 278 277 276
290 283 281 275 278 277 278 273 276 273 268 269 266 262 268 263 265 263 260 265 262 265 267 270 269 278 278 280 275 278 275 281 276 273 274 271 278 275 270 272 270 266 270 271 270 268 268 268 268 272 277 278 279 280 281 282 283 284 285 286 286 288 289 289 289 289 290 290 289 287 288 288 289 289 289 287 285 282 281 281 281 281 280 278 277 276 274
285 283 279 277 275 275 276 265 274 267 267 268 266 261 264 260 261 260 258 262 259 262 265 267 269 272 269 277 274 275 275 277 280 274 273 275 272 269 271 267 270 270 269 264 265 267 269 271 273 275 278 276 272 266 264 265 268 272 276 280 284 287 288 288 288 288 288 288 287 286 286 286 286 283 282 282 282 281 281 280 281 280 278 276 275 274 272
277 275 274 273 268 273 271 265 273 266 263 266 270 264 262 260 263 262 267 266 263 265 269 271 271 270 270 273 272 274 277 272 278 273 269 274 268 270 269 267 271 268 268 268 269 269 268 270 276 275 264 259 263 263 263 263 264 266 269 273 276 280 282 284 286 286 286 285 284 284 283 283 281 280 281 281 282 282 281 280 279 277 276 274 272 270 269
273 271 270 268 266 269 267 265 262 255 262 267 266 267 266 267 262 263 266 265 267 268 269 268 268 270 271 274 270 270 272 272 271 273 274 271 269 268 273 270 268 267 269 268 267 268 270 273 269 259 261 260 259 261 261 262 263 264 265 265 267 272 277 280 282 283 284 283 282 281 281 279 279 279 280 279 280 280 281 280 278 276 274 271 268 267 268
274 275 271 268 265 266 264 259 261 263 260 260 264 268 269 268 267 267 265 265 266 267 266 267 268 270 269 270 270 268 271 271 268 272 273 266 267 270 273 267 267 268 266 267 268 269 271 264 258 260 259 259 260 258 260 260 261 262 262 264 264 266 271 277 279 279 281 280 279 280 281 280 280 279 278 278 278 278 277 276 275 274 272 270 268 268 268
270 275 272 265 265 266 263 265 261 262 260 262 261 262 263 263 262 262 263 264 266 266 263 264 266 269 269 274 273 269 271 270 268 270 271 269 272 267 267 267 266 268 268 267 270 264 259 260 259 258 259 259 258 259 258 259 260 260 261 261 263 264 267 273 277 278 279 280 280 279 277 277 277 277 277 276 274 274 274 274 273 272 270 268 267 267 267
271 269 268 267 268 267 265 265 262 266 267 260 260 262 263 264 262 261 262 263 261 259 261 261 264 267 266 271 268 267 265 269 266 268 272 267 264 265 266 263 263 263 265 258 258 257 257 257 258 259 258 258 258 258 259 258 259 259 260 261 262 263 266 271 276 275 274 276 276 275 276 276 276 275 273 273 272 271 272 271 270 269 268 267 267 266 266
273 270 269 265 264 265 263 260 261 261 258 257 259 260 261 261 262 260 260 258 258 258 264 269 271 268 267 268 265 267 267 269 268 270 268 265 265 265 267 265 267 264 260 255 255 254 255 256 257 257 257 257 258 258 257 258 259 259 260 261 262 263 269 273 273 273 275 276 276 276 276 275 274 273 272 270 269 269 269 268 268 267 267 267 267 266 265
276 274 271 271 269 265 262 262 265 263 261 261 260 259 259 260 260 257 258 257 256 258 260 260 266 268 267 266 265 262 264 267 265 265 267 267 266 264 265 267 263 251 252 255 255 255 255 256 256 256 256 256 256 257 258 257 258 258 259 261 263 267 274 274 273 273 273 274 274 273 274 272 271 269 268 268 267 266 265 265 266 266 266 266 266 265 264
271 268 268 266 265 266 265 265 265 265 262 260 257 256 257 254 256 253 257 256 255 258 259 263 264 265 265 263 266 268 269 267 267 266 266 264 256 260 260 255 252 252 253 252 252 254 255 255 256 256 256 256 257 257 257 258 258 258 260 262 264 270 276 274 274 274 274 273 272 270 268 267 268 268 267 266 266 264 262 261 263 264 264 264 263 263 262
Wind_Speed
24 24 24 25 23 24 24 25 26 25 25 12 9 9 6 11 8 3 6 13 17 11 10 6 7 9 5 4 8 1 3 3 3 6 4 5 4 2 4 9 6 5 4 2 5 8 6 10 10 4 5 10 15 7 14 11 9 5 1 4 2 5 2 3 12 5 4 1 0 1 3 1 3 5 3 6 11 16 15 11 3 5 2 4 1 5 24
13 19 24 24 24 24 24 25 26 26 28 15 10 11 8 9 6 3 4 12 13 12 13 13 17 13 9 5 7 0 3 2 1 6 6 8 4 11 7 3 7 4 3 4 7 7 5 7 7 5 7 7 7 12 12 18 8 10 9 9 8 4 5 6 5 5 5 2 2 1 2 2 5 6 7 11 9 6 3 4 0 2 11 9 9 17 24
11 13 14 22 23 23 23 24 25 26 29 18 13 10 6 3 2 3 6 9 12 17 9 10 10 17 17 14 15 9 4 7 12 8 7 6 3 0 4 5 2 5 5 5 5 4 16 6 7 12 6 8 1 7 15 16 11 9 2 3 11 6 6 8 10 16 15 14 10 7 7 12 4 2 3 9 16 17 2 10 7 12 6 16 11 22 28
11 10 13 12 18 22 22 23 23 25 27 24 11 5 4 6 6 5 6 9 11 10 4 1 5 9 13 11 12 9 11 8 4 11 10 6 1 1 1 2 6 7 3 5 7 9 6 11 4 6 5 1 1 4 11 15 11 6 7 7 12 4 3 10 15 15 17 19 10 1 6 5 7 9 15 18 14 17 14 10 4 14 12 12 23 30 22
12 11 10 11 13 12 21 22 24 24 26 26 15 6 5 2 9 8 8 3 11 14 13 6 3 5 6 7 6 18 20 10 3 11 4 7 10 4 7 3 3 5 7 10 13 12 12 11 12 15 5 2 2 3 3 6 7 4 3 7 5 3 6 14 18 21 22 18 18 7 10 8 10 13 14 18 17 14 16 16 21 20 7 18 20 21 18
13 13 11 11 11 11 10 17 23 26 26 27 13 8 6 7 7 9 8 12 14 18 16 18 15 8 8 9 3 3 6 10 11 2 4 1 9 10 1 9 15 16 17 11 6 6 11 9 18 19 3 2 1 1 0 3 2 2 2 2 6 7 14 19 15 17 19 20 21 8 7 9 10 12 17 17 16 13 17 21 29 23 14 23 24 23 24
13 13 13 12 11 11 10 13 14 22 26 26 15 11 6 6 2 4 9 12 9 23 23 24 21 17 16 9 10 13 14 17 13 5 1 5 5 17 13 17 24 22 13 8 11 9 9 16 16 8 10 15 7 3 2 2 1 4 2 1 2 0 12 12 11 16 17 21 18 7 11 8 8 13 18 16 11 18 23 29 31 20 19 25 29 28 29
14 12 12 12 12 12 12 11 13 14 27 24 13 15 11 13 11 8 8 12 9 11 10 11 18 20 18 14 16 17 21 23 8 3 10 7 7 10 19 22 13 13 15 14 14 20 25 23 15 7 14 5 4 6 7 1 3 2 9 5 4 8 13 16 11 12 18 20 15 8 13 10 15 20 25 19 11 19 28 26 18 14 18 28 30 26 30
13 12 11 11 11 12 12 12 9 13 14 13 16 13 14 4 8 3 6 12 12 8 10 11 15 15 16 16 21 17 20 21 18 13 7 18 10 9 23 21 15 6 12 18 25 28 25 18 20 8 7 11 7 7 3 11 4 4 3 2 2 8 7 2 2 11 16 16 13 7 10 8 12 20 30 24 19 22 25 20 15 14 24 24 17 21 26
15 14 12 10 10 9 12 11 11 10 8 11 8 14 8 9 1 3 4 10 8 14 7 10 9 15 17 19 25 17 23 27 15 11 11 16 18 12 14 17 15 8 11 20 27 29 20 16 17 14 4 5 4 6 3 9 11 7 12 1 4 7 3 6 5 11 16 11 7 7 4 2 9 22 32 27 24 23 21 18 16 22 21 15 19 27 30
17 16 15 14 12 10 9 10 11 10 4 5 6 7 7 13 10 6 7 13 8 14 12 14 18 13 13 22 18 21 17 17 15 18 9 10 15 15 13 12 11 14 18 27 14 3 6 7 6 5 7 6 7 8 7 7 8 9 9 3 2 3 7 10 7 11 11 4 4 6 5 12 23 15 3 15 22 21 22 23 28 24 18 20 23 27 29
18 17 15 15 15 13 11 10 8 9 7 4 4 5 5 6 5 5 6 15 13 12 16 15 18 14 21 20 22 22 23 24 23 19 23 13 8 14 15 14 14 14 18 1 5 3 5 3 1 0 3 5 8 9 8 12 15 8 8 8 7 11 11 12 5 8 9 5 6 1 15 20 18 8 5 5 10 14 19 23 23 26 25 24 23 27 32
18 18 16 14 15 15 14 13 11 9 6 3 5 7 2 4 6 4 6 10 12 13 15 16 16 19 18 15 17 22 24 23 22 18 16 17 14 7 11 16 18 23 4 6 6 5 5 11 13 12 11 8 6 5 10 16 22 10 8 14 12 10 11 5 4 3 5 3 9 15 22 9 7 11 11 5 2 5 5 14 21 23 24 21 19 26 30
19 17 17 15 14 14 15 14 13 12 11 7 4 4 5 5 6 5 5 6 11 11 15 13 13 17 18 21 20 19 16 18 16 16 18 16 21 20 11 9 11 2 8 7 6 6 4 3 8 5 7 5 6 10 19 23 17 15 19 18 13 13 8 7 12 9 14 10 13 21 12 18 21 20 22 13 8 5 9 16 20 24 22 16 17 23 25
20 21 18 16 15 15 13 13 12 12 12 11 5 5 5 5 5 6 4 7 9 4 9 14 8 18 20 18 14 14 13 12 12 16 16 13 11 13 16 10 3 7 7 6 3 4 7 2 6 5 5 5 8 10 2 7 9 22 23 20 18 16 16 9 12 10 11 15 13 12 11 18 22 28 20 7 7 9 11 8 22 24 30 10 18 23 24
21 21 20 20 20 16 15 14 12 12 11 12 5 5 5 4 6 7 7 7 3 7 6 14 11 12 12 15 18 19 16 12 14 10 10 10 12 13 6 2 3 8 5 5 5 6 5 8 11 9 12 11 6 1 5 2 2 1 2 9 14 13 13 13 16 14 10 13 15 16 15 21 13 21 9 1 1 10 5 4 18 24 10 18 20 17 20
20 20 20 19 19 20 18 15 14 13 12 11 5 5 6 3 3 4 6 4 5 8 6 5 3 9 10 10 8 13 12 15 12 11 12 13 14 12 2 2 1 7 10 8 3 6 7 11 9 11 9 5 6 9 1 3 3 1 1 4 6 10 10 9 12 14 15 16 15 17 9 13 8 10 2 6 11 9 8 8 18 21 12 20 15 20 18
18 20 20 20 20 20 20 21 21 21 18 15 8 5 7 4 5 5 6 7 7 6 8 14 15 9 10 6 11 6 3 2 5 5 11 5 3 4 5 4 4 4 10 12 7 10 12 11 14 12 15 9 2 3 15 7 7 8 8 9 7 6 7 11 20 18 19 19 17 13 11 9 14 9 8 7 6 8 5 19 28 4 7 9 14 14 15
20 19 19 20 20 19 19 19 18 16 16 18 9 6 6 4 3 2 6 4 4 7 7 7 2 7 6 5 7 4 2 3 8 7 2 5 7 6 5 2 4 6 7 12 9 11 11 13 6 6 10 8 7 11 4 11 12 3 10 4 3 6 6 4 8 14 17 18 19 16 12 7 13 4 17 7 5 8 19 26 8 2 6 10 10 13 11
20 19 19 18 18 20 19 17 18 18 17 16 9 8 8 6 2 4 6 10 3 9 1 7 7 14 6 6 6 5 3 8 5 9 4 10 2 8 3 5 2 3 6 6 12 6 10 14 13 5 12 11 11 5 8 15 8 14 8 16 13 13 10 11 14 10 7 7 11 9 11 14 21 11 3 3 11 23 25 16 3 2 5 9 7 10 9
19 19 19 19 18 19 19 18 17 16 16 16 12 7 8 2 2 2 4 6 8 11 9 7 8 8 6 9 8 10 10 11 6 10 6 9 4 5 10 9 11 9 9 9 14 13 7 11 12 10 5 10 7 8 13 9 15 12 14 13 13 12 8 5 12 12 11 14 12 13 19 17 18 23 16 18 26 28 22 9 14 15 7 7 8 9 10
19 19 18 18 19 18 18 17 17 17 17 16 14 6 7 3 2 1 3 4 8 10 7 11 11 12 12 11 13 13 14 13 15 10 9 9 3 11 8 4 6 8 4 4 0 1 3 4 3 7 6 8 3 17 11 13 17 9 15 10 9 16 21 18 17 13 14 14 17 19 17 9 18 23 23 25 31 29 23 11 10 11 9 6 7 12 10
20 19 19 19 18 18 18 18 18 17 17 16 12 4 8 5 0 2 2 5 4 7 5 9 9 11 10 18 17 16 15 12 13 14 11 11 12 9 11 10 11 3 3 7 14 13 12 11 16 9 13 13 14 14 16 18 14 10 13 17 22 19 26 18 13 10 13 16 10 7 3 6 15 18 19 23 21 17 16 15 14 14 11 9 11 11 10
21 20 19 19 19 19 18 18 18 17 17 16 12 6 6 4 2 1 1 3 2 7 7 6 5 10 10 18 16 11 11 14 15 16 14 12 15 10 8 7 5 5 4 6 7 10 7 8 10 8 18 9 10 16 14 13 19 11 13 9 9 14 11 12 15 9 9 15 15 26 22 15 14 21 24 21 13 13 13 15 18 19 14 9 8 8 10
21 20 21 21 20 19 18 18 18 18 17 18 15 8 5 3 2 4 2 4 3 3 8 7 11 6 9 5 8 10 7 8 10 13 13 12 14 14 14 8 5 10 13 10 2 7 4 10 7 7 16 7 13 19 11 17 14 14 19 14 7 14 12 16 16 14 19 20 20 23 22 24 20 17 16 18 22 21 12 14 13 14 10 8 10 7 7
21 22 21 20 18 20 20 19 19 18 17 18 14 6 5 6 2 5 3 1 2 2 5 8 12 6 6 8 11 12 10 5 3 7 7 10 11 14 16 13 17 13 13 9 10 11 8 10 9 8 11 7 12 14 12 16 18 14 22 17 19 8 15 15 12 18 23 20 19 15 14 3 10 19 22 24 23 19 19 16 13 7 6 8 8 11 13
21 22 21 21 20 20 21 20 19 18 18 17 10 6 6 5 6 7 5 3 4 6 5 9 8 6 4 5 4 4 5 10 10 11 13 15 16 14 13 13 15 12 14 14 12 15 10 11 9 15 10 7 4 13 9 9 12 12 16 8 6 5 15 11 11 18 17 18 20 19 18 18 18 25 28 28 23 17 13 12 13 14 14 13 13 11 7
20 21 21 22 21 21 20 20 19 19 19 17 11 7 5 6 6 9 7 7 7 9 8 10 9 13 10 12 11 19 16 14 14 14 15 15 15 14 14 14 13 13 12 12 15 13 12 13 16 7 6 1 5 14 9 11 10 12 16 9 11 18 18 13 18 17 20 21 24 22 24 23 21 23 23 18 14 15 17 19 20 20 19 18 14 13 10
21 21 22 22 21 20 20 19 18 19 20 15 4 2 2 4 5 7 9 8 7 5 7 9 8 8 9 11 5 7 8 10 10 11 13 13 15 15 15 15 14 13 13 13 14 12 13 13 6 9 7 4 6 15 7 18 15 17 16 12 16 18 20 26 27 23 27 22 21 20 20 21 20 23 24 17 10 16 20 22 21 20 19 18 17 19 20
20 20 20 19 20 21 20 19 19 19 16 1 4 1 2 4 6 8 10 11 10 5 6 5 9 5 5 3 2 5 6 8 9 10 13 13 14 14 14 15 16 14 13 13 10 16 11 10 10 8 7 7 9 3 12 14 16 16 12 13 21 16 21 21 22 23 23 19 22 20 19 21 19 22 21 16 10 13 15 17 20 20 17 16 18 17 17
22 22 21 20 21 21 20 20 19 17 15 2 3 1 1 5 2 4 9 6 6 4 3 4 9 6 9 3 9 13 13 13 12 13 14 15 16 18 16 14 15 11 13 11 12 17 11 17 11 4 3 14 12 9 15 13 19 15 11 16 18 20 23 23 23 24 25 24 22 20 15 17 14 12 14 12 13 13 13 12 16 19 20 16 18 20 17
20 22 22 21 20 19 19 20 19 18 7 7 6 6 4 5 4 4 7 6 7 4 3 5 5 3 3 3 2 4 7 10 8 5 5 3 9 8 13 12 14 12 14 13 12 11 14 14 14 18 14 9 11 13 12 17 22 18 8 17 20 22 20 22 23 25 23 23 20 21 20 18 14 18 20 17 13 10 16 17 17 16 16 15 16 15 15
20 20 21 22 21 20 19 18 20 12 2 6 12 16 16 15 10 12 6 1 2 2 2 2 4 4 4 5 7 1 1 5 4 3 10 5 11 5 12 7 11 11 12 15 12 14 11 12 14 16 17 10 15 12 14 20 19 11 18 21 18 18 21 21 22 23 24 23 22 25 25 24 26 24 23 17 8 12 14 15 12 6 6 8 11 10 7
20 19 21 21 20 21 20 20 16 16 10 3 4 7 9 15 16 19 11 2 1 1 1 2 2 5 7 3 11 6 4 4 5 5 9 5 6 5 10 7 8 10 7 13 12 12 12 11 17 16 10 16 13 14 20 21 16 24 25 22 23 21 20 20 20 22 22 22 21 24 26 24 22 14 4 10 14 10 9 8 7 9 12 13 14 15 13
21 20 21 20 20 19 19 15 6 3 4 4 6 6 0 7 14 13 11 4 3 2 2 2 2 5 5 2 7 12 4 2 9 9 11 9 8 9 5 12 7 13 8 7 11 11 11 12 9 14 22 10 14 21 15 11 21 25 21 22 23 22 20 20 21 20 20 19 18 20 21 21 22 21 17 11 10 9 10 10 12 13 12 14 15 12 11
21 22 20 19 18 12 3 3 2 2 3 5 6 2 4 7 9 5 7 6 5 3 3 2 3 7 4 12 12 6 2 5 6 5 3 3 4 4 7 6 13 12 6 8 12 6 13 3 7 22 11 15 24 13 14 16 24 22 20 21 19 18 20 23 23 20 20 18 20 19 19 18 19 22 20 19 13 10 11 11 11 13 16 15 14 14 13
18 19 18 11 4 4 2 3 2 5 6 4 3 4 4 2 1 2 1 1 4 2 4 2 6 9 10 13 4 3 4 14 3 6 1 4 5 3 5 4 13 6 7 9 9 13 14 8 14 15 11 18 20 15 22 21 20 20 18 18 14 15 16 17 18 18 18 18 20 19 18 20 21 18 18 18 14 11 11 14 16 18 19 21 18 15 19
18 17 4 2 2 2 2 3 3 5 7 5 3 2 6 4 1 0 2 4 4 4 3 5 11 10 6 7 12 10 5 10 5 6 2 5 5 5 3 5 6 4 13 9 11 8 9 8 11 13 15 15 18 21 21 19 20 19 19 18 18 19 19 19 18 18 20 21 22 21 19 19 19 19 19 21 18 16 18 20 19 20 20 19 17 17 14
8 1 3 1 2 3 3 2 2 4 7 3 3 2 2 0 2 1 3 2 0 5 5 8 12 12 12 9 12 9 9 8 6 2 7 6 5 7 4 10 4 7 11 8 8 7 13 10 10 12 16 12 15 20 19 22 24 24 23 21 20 19 18 20 20 23 24 23 24 24 24 24 24 24 20 21 19 18 18 18 17 15 16 16 15 14 18
5 2 3 3 6 5 2 1 2 4 2 1 1 4 1 1 3 4 2 2 3 4 2 7 9 10 12 14 14 14 5 6 10 12 12 9 2 6 4 7 0 6 12 6 5 1 9 11 6 11 12 10 14 13 15 17 18 20 19 22 25 26 25 24 23 22 25 27 26 26 24 23 21 21 19 19 19 20 17 16 16 15 14 15 17 18 20
1 3 1 5 4 3 3 2 3 3 2 1 1 1 2 3 3 2 0 3 3 4 3 4 1 3 6 9 9 12 9 1 4 5 4 8 5 5 3 7 3 6 6 7 5 4 3 4 6 12 14 10 10 8 9 10 10 12 14 15 14 17 19 21 22 23 23 22 19 19 19 19 18 18 19 20 18 18 18 17 15 15 16 15 19 21 16
6 5 3 3 3 3 2 2 2 2 1 1 2 3 3 3 0 3 1 4 5 2 4 3 4 5 4 2 4 3 6 3 2 3 3 6 4 6 7 4 2 6 7 6 4 0 1 9 10 12 11 14 16 16 16 18 18 19 18 17 18 19 19 19 20 20 18 19 17 19 18 16 17 17 18 19 20 19 18 17 18 15 16 12 9 10 13
7 7 4 3 1 1 1 1 2 2 3 3 3 1 2 2 4 4 4 2 2 2 5 1 2 1 1 0 4 5 5 1 2 4 4 4 2 2 2 5 3 6 7 2 2 4 8 10 12 15 14 16 15 12 12 15 18 18 21 22 21 19 19 20 22 21 22 23 20 15 15 17 19 22 18 14 10 6 5 6 12 13 12 13 14 14 15
3 3 2 1 2 3 3 5 2 4 2 2 4 6 4 2 4 1 0 5 1 2 3 1 3 3 5 2 2 4 2 2 5 2 4 2 2 3 3 4 7 5 2 1 1 9 11 9 10 15 12 10 14 17 17 18 19 21 22 23 23 22 21 17 15 13 15 16 14 13 13 14 16 7 3 5 8 13 12 11 10 11 12 14 14 14 14
4 1 2 1 1 2 3 3 2 4 6 7 6 4 4 8 10 8 10 3 3 3 1 1 1 0 5 5 1 3 3 4 2 2 5 2 4 4 3 5 2 1 2 9 6 7 4 11 15 7 14 15 17 19 19 18 18 19 22 25 24 22 19 18 18 17 17 14 14 12 13 11 5 6 8 10 9 10 13 14 13 14 13 14 13 14 15
2 2 2 3 3 1 3 2 1 2 3 3 5 8 8 8 5 5 3 1 0 4 5 5 4 1 5 3 1 4 3 3 4 4 3 3 5 7 5 1 1 5 7 6 7 11 15 16 6 9 11 15 16 18 20 19 17 18 17 19 24 27 25 21 19 18 15 13 11 11 10 6 8 8 8 6 7 9 10 12 14 16 15 15 15 15 16
1 1 1 1 1 2 1 2 4 6 4 3 6 7 9 5 1 3 4 4 4 4 4 3 2 3 4 4 2 2 3 2 4 4 2 4 4 4 2 1 6 3 6 11 10 11 8 6 7 11 13 14 19 20 15 19 19 19 19 18 20 24 26 22 17 17 15 10 6 6 8 9 7 5 7 8 6 8 10 12 13 15 17 18 17 17 16
3 1 3 2 3 2 4 7 3 2 1 2 1 1 1 0 1 3 5 5 4 3 3 4 5 3 3 4 5 8 6 3 5 6 3 3 3 1 3 3 5 4 4 6 10 3 5 9 12 14 15 16 15 18 20 19 21 24 23 22 21 22 26 25 17 12 9 9 7 4 1 2 5 7 9 10 10 9 11 12 14 14 15 16 16 17 18
1 3 4 3 1 2 3 1 1 6 3 3 1 5 5 5 4 2 4 3 3 2 2 1 2 1 5 2 3 4 4 3 6 6 2 1 3 4 3 5 3 7 2 4 4 6 10 14 15 16 16 16 17 16 17 18 18 20 22 22 22 22 23 24 18 11 4 3 4 6 6 7 9 10 10 11 13 10 10 12 14 13 16 19 18 17 16
1 1 1 1 2 3 2 1 1 3 3 3 4 4 4 3 3 3 4 4 4 4 3 5 4 3 4 1 3 3 5 4 3 3 6 8 5 3 5 10 7 7 4 4 7 9 11 12 13 16 16 16 18 18 18 19 22 22 20 21 20 20 21 18 10 3 2 4 7 9 10 10 10 10 12 12 11 12 12 12 13 14 13 14 17 17 17
1 1 3 5 9 7 4 3 7 6 4 0 3 3 3 3 3 3 6 4 6 4 1 0 2 1 3 2 2 3 3 1 2 3 4 6 1 2 3 10 5 2 8 9 10 11 12 12 13 13 18 21 19 18 19 21 20 21 21 20 20 22 16 3 1 2 4 4 6 10 10 9 9 11 12 13 14 15 15 13 11 11 12 11 11 14 15
1 2 3 2 6 5 2 1 4 5 4 4 4 4 4 1 4 3 6 5 4 1 1 0 0 2 4 5 4 3 3 2 7 3 8 4 4 3 2 2 7 8 9 13 15 12 11 11 12 15 16 17 20 19 20 21 22 22 21 20 21 21 9 3 2 4 6 8 9 10 11 12 13 13 13 14 15 15 17 15 10 12 12 11 11 11 12
Wind_Direction
250 242 237 232 226 220 215 206 195 186 167 165 182 155 195 193 209 50 180 170 159 165 220 212 207 222 256 8 288 266 317 213 224 192 196 218 190 243 229 215 201 253 185 184 194 182 231 176 211 194 223 239 213 196 160 136 161 103 142 54 252 95 140 232 258 297 2 339 325 89 71 91 313 253 158 141 193 200 211 229 168 168 193 165 62 235 259
314 264 244 236 231 224 216 209 200 186 173 178 154 179 201 196 180 121 197 192 176 167 193 208 212 225 251 237 253 96 240 182 238 215 203 192 179 212 218 33 209 247 168 173 215 178 244 225 185 253 226 258 229 150 165 156 175 163 212 164 189 145 239 179 269 314 316 349 2 49 344 54 215 221 193 202 226 232 215 74 116 252 218 149 130 246 259
343 345 292 254 239 231 221 211 205 191 183 172 168 187 171 130 122 139 172 204 198 196 203 213 195 214 222 219 239 244 256 224 222 204 220 219 222 341 257 214 137 223 178 215 234 201 207 268 221 224 211 236 18 196 165 192 182 213 188 155 159 179 170 148 215 231 245 252 232 227 223 214 217 232 203 210 207 217 137 244 183 223 206 156 210 247 251
337 343 355 329 265 241 226 217 208 196 187 176 177 177 117 181 195 147 179 189 225 262 290 226 220 207 215 231 239 235 247 260 222 195 242 187 280 215 217 306 182 213 158 227 226 236 242 213 233 180 242 266 298 212 207 189 200 202 125 151 147 191 184 202 217 220 234 243 253 150 109 80 178 225 203 220 211 217 215 248 222 215 226 197 227 240 271
331 342 342 350 352 287 244 224 210 202 193 181 183 194 188 124 208 160 185 151 223 224 224 204 172 222 164 213 173 221 221 233 314 178 233 191 202 240 218 207 164 223 198 221 234 223 235 236 259 248 206 271 238 348 193 274 268 38 121 175 115 88 223 225 227 230 238 245 253 177 163 183 214 212 224 221 210 199 204 212 234 228 209 248 242 254 255
325 330 335 336 336 357 333 254 222 207 195 188 188 203 151 210 222 204 177 169 191 204 222 212 209 207 195 230 155 250 209 211 229 140 216 131 186 200 283 219 225 221 206 210 233 215 237 222 235 242 220 244 259 333 13 212 26 89 330 261 197 197 226 232 225 240 245 247 250 161 198 222 229 210 225 223 207 203 210 227 236 229 211 243 251 243 245
319 324 326 325 326 328 341 355 266 216 199 187 199 205 220 230 33 221 172 226 179 203 204 199 202 205 197 233 221 243 234 234 215 161 167 191 218 197 229 222 221 224 222 200 231 222 242 242 237 230 226 221 207 218 312 230 102 172 251 258 218 186 246 247 232 246 245 250 247 189 200 235 251 250 243 230 175 211 218 228 233 224 232 244 253 255 257
311 324 330 325 323 317 328 337 351 236 206 197 208 212 181 206 193 212 200 221 210 210 212 199 198 216 197 214 217 228 231 241 219 176 183 213 219 208 225 236 226 214 220 217 229 228 225 231 242 198 222 244 174 233 205 202 345 198 208 188 255 186 240 229 235 254 251 251 245 202 220 228 249 254 256 243 182 219 231 234 241 235 245 249 253 263 267
321 323 332 338 336 331 319 326 333 350 231 214 213 216 218 214 215 109 173 210 215 203 192 190 195 207 208 219 228 233 233 245 227 226 188 218 214 178 219 231 242 207 212 220 231 235 238 238 249 242 167 217 194 195 228 198 183 214 228 220 272 191 271 64 88 229 256 251 245 189 206 225 238 254 256 249 226 230 244 242 226 213 235 245 259 262 258
325 322 319 328 338 342 339 331 328 338 321 239 219 234 223 245 37 178 150 227 177 209 184 203 186 217 206 207 217 215 222 231 224 255 224 229 222 210 206 223 229 228 219 227 229 235 241 248 251 264 273 259 291 238 224 196 195 183 209 136 161 202 170 208 196 231 245 264 100 142 117 96 278 248 242 239 240 235 247 255 243 223 226 236 242 247 250
310 317 318 318 320 326 342 342 347 341 358 297 261 251 221 228 211 202 204 235 184 209 202 213 202 214 203 212 223 224 232 230 219 217 228 209 225 218 206 212 208 230 224 231 231 233 249 253 275 288 277 255 247 257 255 250 221 177 165 180 217 198 216 232 193 236 247 222 123 117 158 222 236 254 210 218 236 237 237 242 244 243 214 226 231 251 263
297 303 309 316 315 314 321 327 331 349 348 287 279 284 300 323 277 214 210 227 225 197 207 209 203 211 217 210 210 218 217 221 225 206 229 227 210 203 201 214 214 241 235 240 86 108 71 69 29 6 227 233 237 245 240 240 244 212 172 183 189 203 209 229 192 242 240 125 129 145 216 231 240 63 200 192 215 222 226 237 243 245 241 237 242 252 261
291 292 300 306 311 312 312 315 317 324 331 331 320 301 306 341 303 271 230 231 233 208 222 223 217 225 227 225 219 222 224 225 228 225 228 231 236 198 199 203 207 232 122 115 142 115 221 241 244 246 254 256 245 242 246 244 247 221 206 215 210 211 203 196 236 194 32 123 200 234 240 253 331 297 263 226 224 227 224 256 250 250 246 238 232 243 253
279 286 287 297 303 310 311 309 314 313 317 326 304 297 304 303 285 277 264 244 241 215 230 245 221 230 228 230 224 228 229 235 234 228 230 225 236 228 217 215 223 115 125 112 128 150 264 130 248 221 236 223 252 251 238 237 235 223 216 220 220 211 203 193 238 189 236 221 227 242 304 306 282 284 262 224 184 163 182 254 262 260 249 218 227 244 250
287 280 276 280 291 296 303 309 312 314 315 318 298 294 290 295 293 277 306 294 286 254 209 229 186 228 228 234 229 239 236 231 228 234 230 236 241 237 236 222 119 141 119 144 170 173 206 136 229 225 227 186 222 237 193 232 224 220 219 218 210 208 216 197 233 228 216 246 250 259 245 251 252 244 266 82 173 178 193 204 269 262 262 187 210 232 246
280 285 288 281 273 277 284 291 298 308 317 319 305 296 275 276 284 282 281 267 309 276 227 225 221 231 228 230 223 226 232 228 233 240 235 226 232 249 260 91 157 129 158 208 175 185 166 209 227 218 229 221 229 264 235 188 312 338 337 235 217 222 230 227 218 240 227 236 239 241 243 247 249 272 266 240 141 154 97 190 259 261 251 150 212 225 237
284 279 278 286 286 279 275 275 283 293 303 310 296 300 287 301 300 313 309 283 241 237 339 358 275 244 237 243 231 233 221 231 220 228 237 229 222 219 233 32 4 180 187 215 176 192 203 219 225 227 248 201 215 213 86 153 214 271 46 93 204 212 218 225 239 239 232 240 242 244 221 261 252 268 160 194 129 122 95 279 262 268 148 194 191 214 226
284 285 282 277 278 282 285 283 279 276 274 283 289 275 281 288 280 266 260 257 254 256 220 240 247 241 240 228 235 230 232 244 223 229 245 234 199 166 195 147 155 267 173 214 154 218 219 212 219 213 233 196 205 111 226 188 212 168 190 157 157 185 224 205 224 221 231 229 249 262 262 252 256 244 152 168 142 112 204 243 257 208 153 174 190 205 217
284 282 288 289 284 278 276 280 286 296 298 285 276 274 263 259 252 311 316 299 272 262 307 338 333 284 298 311 258 233 226 220 217 216 185 215 222 171 148 221 170 205 177 209 189 217 213 227 218 221 236 209 168 216 176 217 217 172 114 124 172 206 195 241 219 233 227 228 234 243 263 259 248 172 155 177 99 229 232 243 237 224 259 159 186 196 211
279 284 281 278 279 279 277 279 280 279 282 289 293 266 272 276 257 248 272 288 250 274 145 284 298 288 289 279 290 266 266 246 219 234 183 228 146 115 43 220 256 96 204 192 221 197 209 224 211 208 223 218 221 176 228 227 196 195 180 200 201 185 178 195 199 219 232 239 246 243 253 247 211 138 84 203 194 238 238 240 11 254 181 177 195 194 198
275 274 276 279 282 284 287 280 275 274 276 278 281 298 291 217 231 256 241 251 285 296 282 225 226 258 299 291 277 257 255 256 267 252 247 242 208 155 207 208 174 179 186 182 216 211 200 231 204 222 204 206 207 205 223 205 230 210 182 204 213 151 208 193 219 182 204 207 202 217 211 239 135 157 191 203 213 234 240 239 254 246 204 187 195 214 190
274 271 271 273 275 277 276 280 285 289 293 288 289 282 274 300 93 34 280 278 273 258 274 299 297 281 274 257 260 267 265 265 266 281 293 291 248 232 250 251 189 184 193 190 53 329 243 222 204 219 204 218 162 228 203 223 233 189 212 189 242 161 213 203 216 187 201 209 215 222 226 193 171 191 212 215 218 229 242 228 240 250 235 199 186 221 196
274 273 272 271 270 270 273 276 277 277 274 273 272 252 271 298 318 246 323 298 252 262 276 273 264 253 249 263 257 250 257 249 254 252 240 248 260 256 262 251 247 204 245 204 214 220 219 210 229 208 235 214 205 227 220 222 243 176 213 199 225 199 215 223 238 223 225 247 241 259 220 179 205 220 223 231 231 233 241 241 248 244 235 182 209 214 196
274 275 271 267 268 270 272 274 273 270 269 267 262 246 254 250 211 27 6 259 266 294 283 223 230 256 234 254 260 251 231 240 238 242 240 229 256 262 257 249 274 264 219 227 242 237 238 228 234 194 237 206 187 227 215 231 233 206 233 216 231 233 217 224 234 215 209 241 212 237 231 223 200 219 230 237 240 229 215 221 229 240 233 213 228 204 194
271 270 270 271 271 270 271 271 270 271 272 272 273 265 261 272 182 176 196 277 271 283 283 299 254 274 293 312 314 296 253 236 230 236 238 234 234 243 251 256 264 260 260 257 297 271 248 254 246 220 238 216 202 240 201 230 244 169 238 219 181 243 197 231 221 224 219 235 225 229 230 231 219 224 241 245 240 235 222 222 227 233 234 209 210 190 203
272 273 276 275 274 273 270 269 272 270 268 265 262 250 237 240 180 113 156 211 251 211 259 268 274 265 251 272 257 254 271 282 321 288 270 266 257 246 252 252 254 255 270 276 276 257 249 249 244 250 247 247 199 239 224 208 235 197 222 221 203 207 149 227 168 220 233 244 253 256 256 270 248 237 233 236 239 231 228 231 236 237 229 219 210 197 203
273 272 270 270 270 269 270 272 271 272 269 267 263 236 227 221 178 166 159 191 272 301 226 244 269 280 112 231 272 289 297 293 286 284 286 276 272 273 272 268 265 264 253 252 240 254 249 246 237 245 227 250 220 242 245 241 237 232 241 226 113 102 209 201 192 233 235 226 229 225 244 243 239 240 236 234 236 240 235 233 232 227 227 220 213 218 216
270 272 271 271 271 271 271 271 272 274 275 275 270 248 211 221 197 186 188 168 176 229 268 282 284 279 286 277 265 263 265 263 262 261 258 263 268 265 261 261 264 265 263 261 255 237 242 239 236 237 246 204 235 248 229 257 252 245 240 217 183 208 213 193 221 215 234 226 231 226 231 239 236 247 247 237 222 224 224 226 228 225 223 219 211 209 203
264 267 270 270 272 274 273 272 274 273 274 276 290 304 291 229 213 192 190 193 186 231 245 260 275 295 280 263 266 309 296 268 266 266 268 270 267 263 260 258 255 254 260 255 261 264 253 253 252 236 226 160 207 253 216 238 228 232 228 195 211 219 214 215 223 229 239 232 233 225 230 237 240 244 253 247 211 216 223 225 227 225 219 213 208 209 206
267 272 273 272 270 267 267 269 270 272 275 321 72 28 312 283 209 201 198 197 197 207 231 265 258 247 254 253 268 216 255 266 256 256 263 267 266 263 258 259 257 250 249 251 260 262 254 270 246 240 238 155 227 245 231 241 246 238 226 208 221 217 231 232 232 231 243 234 240 237 235 240 240 247 248 249 220 203 215 218 222 224 222 210 209 214 215
260 256 259 264 265 268 270 271 272 273 278 280 97 75 242 274 259 172 192 194 192 184 219 242 261 290 283 231 249 257 252 253 259 256 249 244 248 253 253 251 252 242 255 246 242 249 260 255 260 250 216 216 225 242 242 243 250 245 204 212 221 222 225 229 233 237 242 248 249 249 244 246 250 257 255 246 233 203 212 219 223 219 217 207 206 211 213
269 269 264 261 262 265 265 264 262 264 234 151 193 181 185 193 228 135 154 158 150 157 188 260 267 256 257 271 236 207 232 234 239 249 256 243 261 240 254 235 250 233 239 245 241 262 244 255 256 251 242 220 229 258 245 244 246 246 205 216 219 226 225 228 231 236 240 244 250 260 258 254 238 235 247 236 233 192 207 216 219 219 212 207 209 212 214
256 262 268 270 268 266 265 266 267 264 198 234 221 241 256 252 169 159 191 129 14 194 209 198 220 261 271 244 273 225 296 266 243 233 260 213 261 221 255 229 242 247 231 249 237 244 239 240 247 251 245 226 240 250 255 249 248 255 244 241 233 227 230 230 233 233 234 235 229 238 242 241 243 236 240 245 216 197 209 217 221 197 171 196 206 206 200
260 259 261 263 264 265 267 270 276 280 275 266 279 246 236 231 242 242 245 181 193 288 86 171 268 260 260 323 280 261 245 246 260 217 267 216 248 220 256 260 230 252 193 231 240 248 241 241 245 250 254 234 233 250 244 244 251 251 246 246 244 242 237 236 235 237 238 238 237 238 244 248 253 254 214 215 225 214 209 201 177 178 195 196 201 202 194
266 262 259 259 260 262 266 265 268 191 206 231 244 267 113 208 213 220 220 158 237 237 201 261 205 274 296 313 252 272 241 192 257 247 250 260 242 253 259 258 244 244 221 212 249 229 250 236 243 254 244 241 238 233 242 248 241 244 248 250 247 247 249 245 242 238 241 240 242 242 242 245 249 250 240 229 222 207 191 201 193 185 188 203 204 193 169
263 263 265 267 275 272 290 278 209 153 181 218 228 165 187 214 224 215 179 185 167 184 226 236 218 235 223 268 269 272 186 232 219 260 217 249 271 218 232 248 265 246 268 245 263 248 247 201 219 248 236 238 241 237 251 237 248 247 245 246 243 238 239 235 242 237 239 238 240 244 245 245 245 247 248 242 222 205 198 195 200 198 202 201 198 192 186
265 267 271 287 32 68 244 229 202 190 214 188 199 233 277 264 4 104 80 206 281 193 203 197 240 230 226 249 260 266 305 270 319 290 206 251 240 255 244 222 243 265 246 243 239 248 252 233 253 256 240 241 254 252 254 253 252 250 244 244 242 241 243 244 243 245 245 244 243 242 241 242 241 241 243 241 227 200 192 200 197 197 203 207 199 182 189
262 267 252 108 87 121 232 253 210 226 179 161 187 42 352 39 83 264 194 216 220 187 227 214 241 245 242 240 253 257 273 266 276 275 289 257 279 251 227 239 253 271 259 252 249 238 262 239 245 249 251 246 260 259 260 265 264 266 261 256 246 239 238 240 239 239 242 245 244 242 243 242 242 236 233 235 226 211 206 210 210 208 209 205 193 184 167
278 77 70 101 136 219 198 244 246 141 98 38 52 68 328 36 96 253 230 211 236 220 213 210 238 231 237 241 256 252 233 272 282 244 262 249 263 278 248 271 234 245 261 270 263 138 259 235 250 253 260 257 254 255 251 253 254 256 257 257 255 251 246 245 238 236 236 235 237 234 230 232 232 235 230 234 232 226 219 219 221 212 207 200 185 174 173
91 136 169 168 211 207 136 185 164 135 90 83 318 104 235 211 131 244 178 118 281 247 207 232 220 228 219 228 236 261 217 187 231 250 249 266 211 266 261 262 219 259 267 239 269 77 263 276 270 269 262 253 258 266 271 273 272 267 260 253 251 250 249 249 248 243 242 243 241 243 242 240 235 235 233 231 232 233 228 221 216 208 198 192 180 172 176
173 107 179 212 213 138 178 177 44 57 86 102 54 15 94 315 217 220 186 217 221 244 202 208 166 218 232 225 229 247 261 184 254 253 250 250 235 249 241 253 268 270 264 268 262 253 260 281 271 264 270 278 285 282 274 259 250 260 265 278 289 290 281 270 261 256 252 250 248 248 246 242 237 235 236 235 231 230 228 215 206 198 190 181 178 186 177
190 179 188 141 123 113 76 29 75 107 191 178 142 216 173 228 352 358 176 176 225 220 299 182 235 224 249 182 218 219 273 193 203 240 244 252 228 220 241 241 241 239 254 234 251 111 239 258 262 267 266 260 261 269 272 276 278 278 273 263 258 253 249 252 259 266 274 272 262 251 246 244 243 242 238 235 230 224 214 204 198 191 192 185 151 128 144
186 92 89 72 78 95 125 113 211 125 176 167 121 264 196 189 219 182 250 240 283 120 253 51 219 249 257 141 300 196 225 225 246 243 233 253 238 192 196 229 237 248 239 277 237 262 248 255 257 260 264 264 261 273 292 309 309 301 292 286 277 266 257 254 252 246 244 246 248 251 253 249 247 245 242 236 228 209 185 174 172 174 168 153 161 159 153
128 124 128 162 132 237 127 219 156 65 218 187 168 198 183 216 279 103 118 250 217 295 249 72 317 66 293 226 228 295 294 269 215 264 256 257 250 241 235 221 231 247 74 16 232 240 250 249 257 262 274 329 352 353 342 334 333 330 324 320 310 295 283 272 269 267 259 252 248 243 247 249 249 249 160 170 171 177 178 169 166 154 148 145 147 155 149
112 119 106 75 224 228 94 230 112 152 200 199 185 211 174 199 219 185 204 235 109 207 269 161 212 8 279 302 256 241 233 269 317 258 267 250 268 251 241 249 256 10 218 241 245 257 254 261 255 285 9 345 336 334 332 326 329 326 321 316 312 309 301 285 268 255 249 246 237 229 232 231 204 181 198 199 195 182 161 159 153 142 143 141 137 135 145
118 154 123 162 212 204 151 229 87 348 296 178 204 200 206 224 181 210 252 95 45 352 8 339 354 300 280 277 197 264 279 258 273 230 253 269 258 257 249 286 38 255 253 249 245 248 250 254 355 4 340 335 320 324 328 319 318 320 325 320 316 313 307 297 284 269 256 241 226 212 213 183 193 188 189 174 156 156 153 146 148 146 137 134 141 139 143
136 139 107 113 171 263 88 180 222 205 180 195 221 198 205 231 193 78 40 7 31 352 350 308 275 233 267 284 305 298 230 217 244 255 270 284 254 268 8 80 256 229 248 253 245 243 256 28 354 331 335 323 327 321 317 318 317 316 311 305 308 310 306 299 289 280 272 269 251 215 207 204 190 152 124 118 120 119 126 132 138 141 144 141 135 133 135
165 177 117 184 219 164 184 236 217 341 230 174 274 31 328 24 55 27 9 6 332 17 13 351 349 336 281 232 194 253 271 243 259 255 203 232 262 275 259 232 236 245 232 242 256 30 2 345 341 328 324 328 315 317 317 317 318 314 309 305 302 303 305 298 289 284 288 277 249 239 94 91 109 121 126 119 106 106 120 124 124 121 120 123 130 135 137
178 143 173 202 212 180 226 325 82 241 270 49 62 73 21 52 94 56 348 360 11 326 271 142 222 205 261 243 226 239 250 217 246 256 256 258 212 233 252 261 278 269 269 56 332 359 335 329 316 315 312 316 319 311 309 310 303 303 303 299 295 293 293 289 274 258 217 166 132 116 110 112 111 111 110 111 110 107 109 115 118 120 129 134 137 137 136
142 296 41 112 354 278 176 77 83 267 317 353 33 39 2 48 90 74 19 352 339 309 265 214 202 185 251 264 272 242 255 242 248 263 247 250 244 243 237 253 244 267 285 16 321 313 314 315 318 312 317 317 315 315 308 310 312 306 299 294 288 289 288 279 267 251 205 152 139 133 128 121 121 125 124 118 107 102 97 100 110 119 122 130 134 135 134
219 225 229 182 208 227 122 241 225 236 257 239 63 30 12 13 28 349 4 338 320 309 49 163 281 322 302 260 270 267 245 104 350 257 239 261 311 302 258 272 276 129 284 302 298 304 308 310 313 309 315 318 315 311 313 306 304 302 298 298 292 289 283 295 329 34 49 67 97 102 98 98 101 103 103 106 107 100 89 77 86 101 108 108 116 126 127
162 187 244 348 17 27 348 202 86 55 55 53 67 28 9 46 12 333 327 321 275 159 260 205 202 237 235 237 244 275 316 290 254 287 275 273 63 248 273 338 326 320 316 314 310 309 306 304 305 305 304 306 312 312 309 311 307 303 302 302 303 301 299 348 28 71 83 78 79 87 84 94 101 102 107 108 109 106 98 83 90 93 94 94 89 87 95